sat.trackr.live / text

‹ back to catalog

STARLINK-6045

NORAD 56462 · 2023-064Q

PAYLOAD ACTIVE UNKNOWN

§ Identity

Operator
Country
US
Launch date
2023-05-10
Launch site
AFWTR
Launch vehicle
Mass (kg)
RCS (m²)

Purposes: comms

External: N2YO · Heavens-Above · Gunter

§ Orbital elements

Epoch: 2026-05-24T18:35:13.368192Z

Period
96.11 min
Inclination
69.9987°
Eccentricity
0.0003285
Mean motion
14.98332761 rev/d
Perigee alt
569.8 km
Apogee alt
574.3 km
Semi-major
6,950.2 km
B*
4.6646e-6
RAAN
272.4112°
Arg perigee
268.8787°
Mean anomaly
91.1996°
Rev number
16,763

§ Raw data

STARLINK-60451 56462U 23064Q   26144.77446028 -.00000037  00000+0  46646-5 0  99942 56462  69.9987 272.4112 0003285 268.8787  91.1996 14.98332761167638

JSON: /api/v1/satellites/56462 · /tle

For live sub-satellite position, see the globe view (requires WebGL).

§ Visibility from observer

Set your observer location to see the next 7 days of passes ≥ 10°. The values pass through the URL so the page stays shareable.

No JS? Fill the form by hand. The geolocation button needs JavaScript.